Weather History for Minneapolis Flying Cloud, MN

Change the Weather History Date:

Friday, October 8, 2010

  Actual Average Record
Temperature  
Mean Temperature 71 °F -  
Max Temperature 88 °F 61 °F 88 °F (2010)
Min Temperature 54 °F 40 °F 28 °F (2000)
Cooling Degree Days 6    
Growing Degree Days 21 (Base 50)    
Moisture  
Dew Point 48 °F    
Average Humidity 52    
Maximum Humidity 84    
Minimum Humidity 30    
Precipitation  
Precipitation 0.00 in - - ()
Sea Level Pressure  
Sea Level Pressure 29.90 in    
Wind  
Wind Speed 5 mph (SSW)    
Max Wind Speed 8 mph    
Max Gust Speed -    
Visibility 10 miles    
Events      
Averages and records for this station are not official NWS values.
T = Trace of Precipitation, MM = Missing Value Source: NWS Daily Summary

Daily Weather History Graph

Daily Weather History Graph

Search for Another Location

Airport:

Trip Planner

Search our weather history database for the weather conditions in past years. The results will help you decide how hot, cold, wet, or windy it might be!

Date:

Astronomy

Oct. 08, 2010 Rise Set
Actual Time 7:20 AM CDT 6:41 PM CDT
Civil Twilight 6:51 AM CDT 7:10 PM CDT
Nautical Twilight 6:17 AM CDT 7:44 PM CDT
Astronomical Twilight 5:43 AM CDT 8:18 PM CDT
Moon 8:34 AM CDT (10/8) 6:48 PM CDT (10/8)
Length of Visible Light 12h 19m
Length of Day
11h 21m
New Moon, 1% of the Moon is Illuminated
Oct 8
New Moon
Oct 14
First Quarter
Oct 22
Full
Oct 30
Last Quarter
Nov 5
New

Hourly Weather History & Observations

Time (CDT) Temp. Heat Index Dew Point Humidity Pressure Visibility Wind Dir Wind Speed Gust Speed Precip Events Conditions
12:53 AM 55.9 °F - 37.9 °F 51% 30.01 in 10.0 mi SSW 4.6 mph - N/A   Clear
1:53 AM 54.0 °F - 39.0 °F 57% 29.99 in 10.0 mi SSW 4.6 mph - N/A   Clear
2:53 AM 55.0 °F - 37.9 °F 53% 29.98 in 10.0 mi SSW 3.5 mph - N/A   Clear
3:53 AM 54.0 °F - 39.0 °F 57% 29.97 in 10.0 mi SSW 5.8 mph - N/A   Clear
4:53 AM 54.0 °F - 39.9 °F 59% 29.95 in 10.0 mi SSW 6.9 mph - N/A   Clear
5:53 AM 55.0 °F - 39.9 °F 57% 29.94 in 10.0 mi SSW 6.9 mph - N/A   Clear
6:53 AM 55.0 °F - 41.0 °F 59% 29.93 in 10.0 mi SSW 6.9 mph - N/A   Clear
7:53 AM 57.0 °F - 41.0 °F 55% 29.93 in 10.0 mi SSW 5.8 mph - N/A   Clear
8:53 AM 61.0 °F - 42.1 °F 50% 29.93 in 10.0 mi SW 6.9 mph - N/A   Clear
9:53 AM 64.9 °F - 44.1 °F 47% 29.93 in 10.0 mi SW 8.1 mph - N/A   Clear
2:53 PM 86.0 °F 84.0 °F 53.1 °F 32% 29.85 in 10.0 mi SW 6.9 mph - N/A   Clear
3:53 PM 88.0 °F 85.7 °F 53.1 °F 30% 29.84 in 10.0 mi SSW 5.8 mph - N/A   Clear
4:53 PM 88.0 °F 85.7 °F 53.1 °F 30% 29.84 in 10.0 mi SSW 6.9 mph - N/A   Clear
5:53 PM 84.9 °F 83.6 °F 55.0 °F 36% 29.84 in 10.0 mi SSW 4.6 mph - N/A   Clear
6:53 PM 80.1 °F 80.1 °F 55.0 °F 42% 29.84 in 10.0 mi SSW 3.5 mph - N/A   Clear
7:53 PM 75.9 °F - 55.0 °F 48% 29.85 in 10.0 mi South 3.5 mph - N/A   Clear
8:53 PM 71.1 °F - 55.0 °F 57% 29.85 in 10.0 mi SSE 3.5 mph - N/A   Clear
9:53 PM 69.1 °F - 55.9 °F 63% 29.86 in 10.0 mi SSW 3.5 mph - N/A   Clear
10:53 PM 64.0 °F - 57.9 °F 80% 29.87 in 10.0 mi Calm Calm - N/A   Clear
11:53 PM 63.0 °F - 57.9 °F 84% 29.88 in 9.0 mi Calm Calm - N/A   Clear